Prox-1
1 44339U 19036A   25041.53659178  .00019016  00000-0  26669-2 0  9996
2 44339  23.9977 121.5647 0008322 150.2541 209.8429 14.75901213300382
SONATE
1 44400U 19038Q   25041.54514789  .00074170  00000-0  97597-3 0  9997
2 44400  97.7095  56.0569 0008128 343.9860  16.1136 15.58186545310868
Taurus 1
1 44530U 19059C   25041.78084165  .00012585  00000-0  24708-2 0  9995
2 44530  98.5904 175.8926 0009234  41.5559 318.6342 14.62798537286553
Duchifat 3
1 44854U 19089C   25041.35834686  .00051859  00000-0  15466-2 0  9999
2 44854  36.9495  26.1535 0010484 273.0597  86.8955 15.33604931284623
TO-108
1 44881U 19093C   25041.79840378  .00002093  00000-0  25063-3 0  9998
2 44881  97.8044 119.9125 0012647 260.7001  99.2784 14.85116221278448
FloripaSat 1
1 44885U 19093G   25041.80595735  .00009891  00000-0  88389-3 0  9991
2 44885  97.8235 129.3422 0010186 240.8446 119.1756 14.96067718278974
RS-44
1 44909U 19096E   25041.48500516  .00000015  00000-0  20347-4 0  9998
2 44909  82.5234 306.4276 0216727 213.8383 144.8731 12.79738113239456
UPMSat 2
1 46276U 20061E   25041.14761124  .00053703  00000-0  87912-3 0  9990
2 46276  97.2641 112.9158 0000496  32.9118 327.2165 15.52332483246842
SALSAT
1 46495U 20068K   25041.37735737  .00014326  00000-0  67145-3 0  9990
2 46495  97.8473  14.2403 0011140 205.5523 154.5162 15.19755621240407
CubeSX-Sirius-HSE
1 47951U 21022V   25041.83554019  .00085691  00000-0  14250-2 0  9993
2 47951  97.4351 308.9868 0009441  27.7783 332.3972 15.51713065215215
CubeSX-HSE
1 47952U 21022W   25041.81694321  .00086648  00000-0  14162-2 0  9998
2 47952  97.4355 309.1428 0009048  23.5370 336.6295 15.52198562215220
KSU-Cubesat
1 47954U 21022Y   25041.68420767  .00234226  00000-0  18557-2 0  9995
2 47954  97.4323 312.9447 0006530  44.2937 315.8847 15.70582146215173
GRBAlpha
1 47959U 21022AD  25041.77829231  .00085064  00000-0  13973-2 0  9990
2 47959  97.4342 309.2645 0009417  26.7169 333.4566 15.52060451214046
Orbicraft-Zorkiy
1 47960U 21022AE  25041.80423834  .00148496  00000-0  16613-2 0  9998
2 47960  97.4338 312.2979 0007408  32.8112 327.3605 15.62206992214905
TUBIN
1 48900U 21059X   25041.74377727  .00046048  00000-0  89537-3 0  9991
2 48900  97.6647 202.5609 0005056 317.3542  42.7315 15.47455474201581
LEDSAT
1 49069U 21073D   25041.75608139  .00053728  00000-0  11711-2 0  9990
2 49069  97.4054 119.7943 0013143 151.4741 208.7229 15.43989472193003
CUTE
1 49263U 21088D   25041.18988743  .00022992  00000-0  56412-3 0  9998
2 49263  97.4654 114.4118 0008522 320.4103  39.6520 15.40672464186000
TeikyoSat 4
1 49396U 21102B   25041.58423368  .00004302  00000-0  29285-3 0  9996
2 49396  97.4290  84.2582 0012841 174.6485 185.4883 15.06739732178628
Z-Sat
1 49399U 21102E   25041.75809754  .00007339  00000-0  42112-3 0  9992
2 49399  97.3992  86.8492 0019492 151.7755 208.4537 15.12676148179005
KOSEN 1
1 49402U 21102H   25041.70977099  .00011400  00000-0  56743-3 0  9999
2 49402  97.3907  89.3923 0017957 131.1850 229.0936 15.17616862179245
HO-113
1 50466U 21131B   25041.79109707  .00001196  00000-0  38941-3 0  9996
2 50466  98.5139 131.7525 0005081 126.7596 233.4060 14.40525069164344
IRIS-A
1 51044U 22002BN  25041.16681098  .00092011  00000-0  12638-2 0  9996
2 51044  97.3467 116.0144 0003829 253.8034 106.2800 15.56997119171094
Foresail-1
1 52766U 22057AL  25041.32458481  .00086610  00000-0  12050-2 0  9990
2 52766  97.5974 182.5442 0006141 345.1251  14.9821 15.56656579151151
SNUGLITE 2
1 52899U 22065F   25041.82420224  .00002668  00000-0  53408-3 0  9999
2 52899  98.1470 185.1334 0008446 122.5691 237.6327 14.62596838139125
IO-117
1 53106U 22080B   25034.56446200 -.00000003  00000-0  00000-0 0  9992
2 53106  70.1417 112.1355 0008120  52.7419 307.3980  6.42557586 60132
FO-118
1 54684U 22167C   25041.80146771  .00377224  00000-0  18342-2 0  9996
2 54684  97.6083 204.8973 0007759 319.4267  40.6421 15.81398324121190
SO-120
1 56992U 23084BU  25041.66292686  .04777680  25078-5  21514-2 0  9996
2 56992  97.5108 177.3762 0012226 294.1124  65.8886 16.21964233 93091
UmKA 1 (RS40S)
1 57172U 23091G   25041.79984654  .00009789  00000-0  55583-3 0  9993
2 57172  97.5781  97.8686 0015772  29.6363 330.5759 15.13029271 89501
CubeBel-2 (EU11S)
1 57175U 23091K   25041.82889990  .00015481  00000-0  81228-3 0  9998
2 57175  97.5781  98.4323 0013858  38.9595 321.2633 15.15751445 89541
VERONIKA
1 58261U 23174F   25041.80649292  .00067015  00000-0  14615-2 0  9999
2 58261  97.4300 123.4005 0007457 116.0147 244.1870 15.43976261 70215
KAFASAT
1 58317U 23174BP  25041.80478494  .00178178  00000-0  19768-2 0  9992
2 58317  97.4186 126.5546 0002774  67.1745 292.9806 15.62350957 70444
ENSO
1 58470U 23185J   25041.81281350  .00048891  00000-0  11667-2 0  9996
2 58470  97.3920 114.3348 0009110 147.1997 212.9817 15.41348242 66656
EIRSAT-1
1 58472U 23185L   25041.77749001  .00059576  00000-0  12493-2 0  9995
2 58472  97.3914 114.9517 0008129 148.1668 212.0074 15.45163061 66698
SONATE-2
1 59112U 24043Q   25041.30530551  .00030417  00000-0  10566-2 0  9990
2 59112  97.4966 170.7317 0012018 175.7559 184.3785 15.29635195 52063
MO-122
1 60209U 24125G   25041.53854169  .00031423  00000-0  10772-2 0  9996
2 60209  97.2945 254.8534 0020567 200.9543 159.0857 15.29921319 33710
GRBBeta
1 60237U 24128C   25041.62350791  .00006683  00000-0  53052-3 0  9991
2 60237  61.9931 133.8008 0039871  29.7036 330.6306 15.00797297 32336
Curium One
1 60242U 24128H   25041.54693080  .00011679  00000-0  88463-3 0  9994
2 60242  61.9835 133.7434 0040166  23.9961 336.2989 15.02039241 32338
ROBUSTA-3A
1 60243U 24128J   25041.58391450  .00011980  00000-0  91712-3 0  9991
2 60243  61.9903 134.0846 0038284  21.7780 338.4927 15.01676055 32334
CatSat
1 60246U 24125J   25041.56616417  .00016112  00000-0  59373-3 0  9991
2 60246  97.2732 255.2384 0046206 155.6196 204.7243 15.26867030 31802
HYPERVIEW-1G (RS66S)
1 61772U 24199AP  25041.75783558  .00028261  00000-0  10160-2 0  9997
2 61772  97.3737 271.2785 0014030 257.4639 102.5031 15.28501013 58761
AO-123
1 61781U 24199AY  25041.78851199  .00013576  00000-0  53467-3 0  9998
2 61781  97.3744 271.0955 0015155 258.2968 101.6570 15.25623637 58750
POEM 4 (BGS ARPIT)
1 62461U 24253C   25041.52609470  .00157437  00000-0  77744-3 0  9999
2 62461  55.2199  56.2842 0012368  41.2826 318.9157 15.81078189  6583
